Other Public Products
Issued by NWS Grand Forks, ND

Home | Current Version | Previous Version | Graphics & Text | Print | Product List | Glossary On
Versions: 1 2 3 4 5 6 7 8 9 10 11 12 13 14 15 16 17 18 19 20 21 22 23 24 25 26 27 28 29 30 31 32 33 34 35 36 37 38 39 40 41 42 43 44 45 46 47 48 49 50
000
FPUS83 KFGF 240110
OPUFGF
PRAIRIE TO PINES WEATHER ROUNDUP
NATIONAL WEATHER SERVICE EASTERN NORTH DAKOTA/GRAND FORKS ND
800 PM CDT MON OCT 23 2017

 **SATELLITE DATA USED TO AUGMENT SKY COVER AT AUTOMATED STATIONS**
 *****  WEATHER ACROSS EASTERN NORTH DAKOTA  *****

CITY           SKY/WX    TMP DP  RH WIND       PRES   REMARKS
GRAND FORKS    FAIR      40  30  67 N17G30    30.10R
GRAND FORKS AF FAIR      39  28  64 N13       30.11R
GRAND CITY NWS NOT AVBL
BUXTON         NOT AVBL
DEVILS LAKE    FAIR      44  27  51 NW21      30.15R
FARGO          FAIR      43  30  60 N17G28    30.07R
WAHPETON ARPT  NOT AVBL
$$

 *****  WEATHER ACROSS CENTRAL AND WESTERN NORTH DAKOTA  *****

CITY           SKY/WX    TMP DP  RH WIND       PRES   REMARKS
JAMESTOWN      FAIR      44  32  62 NW23G31   30.14R
BISMARCK       FAIR      50  31  48 NW21G31   30.24R
MINOT          FAIR      45  31  58 NW13      30.25R
MINOT AFB      FAIR      44  31  60 NW16      30.23R
GARRISON         N/A     44  32  62 NW17      30.26R
WILLISTON      FAIR      48  28  46 NW14      30.36R
DICKINSON      FAIR      47  26  44 NW17      30.31R
HETTINGER      FAIR      47  23  38 NW18      30.33R
$$

 *****  OTHER OBSERVATIONS NORTHEAST NORTH DAKOTA  *****

CITY           SKY/WX    TMP DP  RH WIND       PRES   REMARKS
WALHALLA       FAIR     N/A N/A N/A NW13      30.15R
LANGDON        FAIR      36  28  75 N10       30.15R
CAVALIER       FAIR      39  30  70 N14G23    30.14R
GRAFTON        FAIR      39  30  70 N16G23    30.14R
CANDO          FAIR      41  27  56 NW15      30.19R
FORT TOTTEN      N/A     45  29  54 NW12      29.95S
ROLLA          FAIR      39  25  56 NW18      30.18R
RUGBY            N/A     41  28  60 NW14      30.19R
 ***** THE ABOVE OBSERVATIONS ARE NON NWS ARE NOT QUALITY
        CONTROLLED AND MAY MIS-REPORT RAIN FOR SNOW...
$$

 *****  OTHER OBSERVATIONS SOUTHEAST NORTH DAKOTA *****

CITY           SKY/WX    TMP DP  RH WIND       PRES   REMARKS
COOPERSTOWN    FAIR      43  30  61 NW18      30.12R
VALLEY CITY    FAIR      43  32  65 NW20G25   30.13R
OAKES          NOT AVBL
GWINNER          N/A     46  37  71 NW16G23   30.08R
SHEYENNE NWR     N/A     49  29  46 N14       29.95
BUFFALO        NOT AVBL
WYNDMERE       NOT AVBL
 ***** THE ABOVE OBSERVATIONS ARE NON NWS ARE NOT QUALITY
       CONTROLLED AND MAY MIS-REPORT RAIN FOR SNOW...
$$

  *****  WEATHER ACROSS NORTHERN MINNESOTA  *****

CITY           SKY/WX    TMP DP  RH WIND       PRES   REMARKS
FLAG ISLAND    CLOUDY    43  36  75 N25G32    30.00R
WARROAD        CLOUDY    41  34  75 NW14G21   30.03R
ROSEAU         CLOUDY    43  32  65 NW16G23   30.03R
HALLOCK        CLOUDY    41  27  56 N22G30    30.11R
THF RVR FALLS  CLOUDY    40  27  59 N17       30.06R
HALSTAD        NOT AVBL
FOSSTON        CLOUDY    36  25  64 N20G28    30.04R
BAUDETTE       LGT RAIN  41  35  79 NW21G35   29.98R
WASKISH        CLOUDY    41  32  70 NW12G17   29.97R
CROOKSTON      FAIR      37  28  70 N14       30.09R
$$
  *****  WEATHER ACROSS CENTRAL AND WEST MINNESOTA  *****

CITY           SKY/WX    TMP DP  RH WIND       PRES   REMARKS
BEMIDJI        CLOUDY    39  28  63 NW14      29.98R
PARK RAPIDS    MOCLDY    42  29  59 NW17G28   29.96R
WADENA         FAIR      43  28  56 NW13G24   29.95R
DETROIT LAKES  FAIR      41  32  70 N22G29    30.01R
MOORHEAD       FAIR      43  28  56 N21       30.07R
FERGUS FALLS   FAIR      45  32  61 N13G21    30.00R
ELBOW LAKE     FAIR      46  34  64 NW13      29.99R
MORRIS MN      MOCLDY    48  34  57 N14G22    29.96R
STAPLES        FAIR      43  27  52 NW18      29.94R
WHEATON        CLOUDY    50  34  53 NW23G30   30.02R
$$
  *****  WEATHER ELSEWHERE ACROSS MINNESOTA  *****

CITY           SKY/WX    TMP DP  RH WIND       PRES   REMARKS
DULUTH         CLOUDY    42  39  89 NW17G35   29.79S
INTRNTL FALLS  CLOUDY    42  32  67 N17G23    29.92R
ELY            CLOUDY    43  37  81 NW13G21   29.81F
CLOQUET        CLOUDY    43  36  75 NW18G26   29.83R
BRAINERD       FAIR      45  26  47 NW16      29.92R
HIBBING        CLOUDY    42  33  70 NW24G31   29.85R
ALEXANDRIA     FAIR      46  31  55 NW12      29.97R
SAINT CLOUD    FAIR      46  28  49 NW20G26   29.89R
MINNEAPOLIS    CLOUDY    49  32  52 N17G25    29.86R
$$

  *****  WEATHER ACROSS SOUTH DAKOTA  *****

CITY           SKY/WX    TMP DP  RH WIND       PRES   REMARKS
SIOUX FALLS    CLOUDY    52  34  50 NW16G24   30.03F
BROOKINGS      CLOUDY    50  35  56 NW25G33   30.02S
WATERTOWN      MOCLDY    48  35  60 NW22G32   30.03S
HURON          CLOUDY    52  33  48 NW18G26   30.11R
SISSETON         N/A     49  38  65 NW18      30.02R
ABERDEEN       CLOUDY    50  36  58 NW26G32   30.13R
MITCHELL       CLOUDY    53  34  48 NW16      30.12R
PIERRE         CLOUDY    53  29  39 NW23      30.22R
MOBRIDGE       CLOUDY    54  28  36 N20G31    30.18R
RAPID CITY     FAIR      46  22  38 NW15      30.38R
$$

  *****  SOME WEATHER IN NEARBY STATES *****

CITY           SKY/WX    TMP DP  RH WIND       PRES   REMARKS
GLASGOW MT     FAIR      47  23  38 NW14      30.45R
GREAT FALLS MT FAIR      39  19  44 W10       30.54R
CHEYENNE WY    FAIR      43  16  33 N9        30.47R
SCOTTSBLUFF NE FAIR      48  17  29 N12       30.44R
OMAHA NE       MOCLDY    53  29  39 NW14      30.07R
DES MOINES IA  MOCLDY    50  33  52 NW14G28   29.94R
DAVENPORT IA   CLOUDY    52  45  77 W12       29.77S
CHICAGO IL     CLOUDY    52  45  77 SW7       29.65S
EAU CLAIRE WI  NOT AVBL
LA CROSSE WI   FAIR      53  42  66 NW17G29   29.72S
$$

  *****  SOME NATIONAL WEATHER *****

CITY           SKY/WX    TMP DP  RH WIND       PRES   REMARKS
LA GUARDIA NY  MOCLDY    71  63  75 SE15G22   30.05F
RALEIGH NC     TSTM      73  67  81 S17G32    29.77F
ATLANTA GA     FAIR      60  54  80 W9        29.93R
NEW ORLEANS LA FAIR      67  52  58 N6        30.03R
OKLAHOMA CITY  MOCLDY    63  35  35 N13       30.20R
ALBUQUERQUE NM FAIR      70  25  18 NW10      30.33R
SALT LAKE CITY MOCLDY    59  37  44 W7        30.59R
LOS ANGELES CA FAIR      84  43  23 W8        29.99S
BOISE ID       FAIR      55  38  52 NW9       30.64S
SEATTLE WA     MOCLDY    62  45  53 NW3       30.62S
$$

*** WEATHER ACROSS MANITOBA...SASKATCHEWAN AND ONTARIO ***
                ***ONTARIO***

CITY           SKY/WX    TMP DP  RH WIND       PRES   REMARKS
GERALDTON      CLOUDY    45  39  81 E2        29.74S
THUNDER BAY    MOCLDY    50  45  81 W6        29.69F
SIOUX LOOKOUT  CLOUDY    37  37 100 N9G17     29.90R
TORONTO        LGT RAIN  61  57  88 E10G21    29.66F
BIG TROUT LK   MOCLDY    36  28  75 N10G21    29.97R
PICKLE LAKE    CLOUDY    37  34  87 N9G18     29.91R
DRYDEN         CLOUDY    37  36  93 N8G17     29.92R
KENORA         MOCLDY    39  30  70 N16G26    29.98R
$$
                *** MANITOBA***

CITY           SKY/WX    TMP DP  RH WIND       PRES   REMARKS
BRANDON        PTCLDY    34  23  64 NW10      30.21R
DAUPHIN        CLEAR     30  25  80 W7        30.22R WCI  23
ISLAND LAKE    MOCLDY    36  28  75 NW16G23   30.08R
PILOT MOUND      N/A     34  27  75 N10         N/A
THE PAS        PTCLDY    39  30  70 NW12      30.20R
THOMPSON       MOCLDY    32  28  86 NW8       30.13R WCI  25
WINNIPEG       PTCLDY    36  28  75 NW15      30.14R
LYNN LAKE      CLOUDY    34  30  86 NW6       30.13R
CHURCHILL      CLEAR     27  21  80 NW25G37   29.96R WCI  11
GILLAM         CLOUDY    28  23  80 NW17G24   30.07R WCI  16
$$
                ***SASKATCHEWAN***

CITY           SKY/WX    TMP DP  RH WIND       PRES   REMARKS
ESTEVAN        PTCLDY    37  25  60 NW9       30.30R
KINDERSLEY     CLEAR     39  23  52 W8        30.39R
LLOYDMINSTER   PTCLDY    34  27  75 W9        30.33R
PRINCE ALBERT  PTCLDY    32  28  86 VRB5      30.31R
REGINA         CLEAR     43  30  61 W13       30.33R
YORKTON        PTCLDY    39  32  75 NW9       30.26R


USA.gov is the U.S. government's official web portal to all federal, state and local government web resources and services.